Location: Tierra del Sol
(32.6128°N, 116.3319°W)
Time: 16:29:37
(UTC-08:00)

Tiangong 2 - Pass Details

Date: 08 October 2017
Orbit: 386 x 390 km, 42.8° (Epoch: 13 December)

Event Time Altitude Azimuth Distance (km) Brightness Sun altitude
Exits shadow 05:58:28 16° 272° (W) 1,101 2.7 -10.5°
Maximum altitude 06:00:37 38° 335° (NNW) 618 1.9 -10.0°
Drops below altitude 10° 06:03:39 10° 46° (NE) 1,424 4.6 -9.4°
Sets 06:05:50 0° 55° (NE) 2,282 5.9 -8.9°
